Datum;Zeit;Leistung;Tagesertrag;Temperatur WR
11.01.2014;14:40:00;636;9.60;33
11.01.2014;14:50:00;316;9.70;32
11.01.2014;15:00:00;237;9.70;32
11.01.2014;15:10:00;219;9.80;32
11.01.2014;15:20:00;239;9.80;32
11.01.2014;15:30:00;213;9.80;32
11.01.2014;15:40:00;222;9.90;32
11.01.2014;15:50:00;236;9.90;32
11.01.2014;16:00:00;206;9.90;31
11.01.2014;16:10:00;213;10.00;31
11.01.2014;16:20:00;228;10.0;31
11.01.2014;16:30:00;198;10.0;31
11.01.2014;16:40:00;143;10.1;31
11.01.2014;16:50:00;97;10.1;31
11.01.2014;17:00:00;0;10.1;0
12.01.2014;08:30:00;34;0;19
12.01.2014;08:40:00;127;0;25
12.01.2014;08:50:00;127;0;26
12.01.2014;09:00:00;176;0;26
12.01.2014;09:10:00;233;.1;27
12.01.2014;09:20:00;276;.1;27
12.01.2014;09:30:00;309;.2;27
12.01.2014;09:40:00;327;.2;28
12.01.2014;09:50:00;478;.3;28
12.01.2014;10:00:00;397;.3;28
12.01.2014;10:10:00;454;.4;28
12.01.2014;10:20:00;586;.5;28
12.01.2014;10:30:00;724;.6;29
12.01.2014;10:40:00;805;.7;29
12.01.2014;10:50:00;993;.9;29
12.01.2014;11:00:00;1239;1.1;29
12.01.2014;11:10:00;1193;1.3;29
12.01.2014;11:20:00;1262;1.5;30
12.01.2014;11:30:00;988;1.7;30
12.01.2014;11:40:00;971;1.9;30
12.01.2014;11:50:00;968;2.0;30
12.01.2014;12:00:00;878;2.2;30
12.01.2014;12:10:00;986;2.3;30
12.01.2014;12:20:00;1011;2.5;30
12.01.2014;12:30:00;965;2.7;30
12.01.2014;12:40:00;951;2.8;30
12.01.2014;12:50:00;997;3.0;30
12.01.2014;13:00:00;1059;3.1;30
12.01.2014;13:10:00;1001;3.3;31
12.01.2014;13:20:00;919;3.5;31
12.01.2014;13:30:00;869;3.6;31
12.01.2014;13:40:00;980;3.8;31
12.01.2014;13:50:00;846;3.9;31
12.01.2014;14:00:00;673;4.0;31
12.01.2014;14:10:00;635;4.1;31
12.01.2014;14:20:00;571;4.2;31
12.01.2014;14:30:00;558;4.3;31
12.01.2014;14:40:00;415;4.4;31
12.01.2014;14:50:00;439;4.5;31
12.01.2014;15:00:00;514;4.5;31
12.01.2014;15:10:00;502;4.6;31
12.01.2014;15:20:00;445;4.7;31
12.01.2014;15:30:00;422;4.8;31
12.01.2014;15:40:00;314;4.8;31
12.01.2014;15:50:00;295;4.9;31
12.01.2014;16:00:00;278;4.9;31
12.01.2014;16:10:00;285;5.0;31
12.01.2014;16:20:00;246;5.0;31
12.01.2014;16:30:00;195;5.1;31
12.01.2014;16:40:00;113;5.1;31
12.01.2014;16:50:00;35;5.1;26
12.01.2014;17:00:00;0;5.1;0
13.01.2014;08:15:00;12;0;16
13.01.2014;08:25:00;175;0;25
13.01.2014;08:35:00;207;0;26
13.01.2014;08:45:00;289;.1;26
13.01.2014;08:55:00;356;.1;27
13.01.2014;09:05:00;458;.2;27
13.01.2014;09:15:00;585;.3;27
13.01.2014;09:25:00;620;.4;28
13.01.2014;09:35:00;644;.5;28
13.01.2014;09:45:00;1105;.6;28
13.01.2014;09:55:00;1233;.8;28
13.01.2014;10:05:00;1480;1.1;29
13.01.2014;10:15:00;1729;1.3;29
13.01.2014;10:25:00;2346;1.7;30
13.01.2014;10:35:00;3003;2.2;31
13.01.2014;10:45:00;3075;2.7;32
13.01.2014;10:55:00;3074;3.2;34
13.01.2014;11:05:00;3080;3.7;34
13.01.2014;11:15:00;3338;4.2;35
13.01.2014;11:25:00;3423;4.8;36
13.01.2014;11:35:00;3403;5.4;37
13.01.2014;11:45:00;2006;5.8;36
13.01.2014;11:55:00;2117;6.1;36
13.01.2014;12:05:00;1902;6.5;35
13.01.2014;12:15:00;2202;6.8;35
13.01.2014;12:25:00;2932;7.2;35
13.01.2014;12:35:00;2296;7.7;36
13.01.2014;12:45:00;1716;8.0;35
13.01.2014;12:55:00;1705;8.2;35
13.01.2014;13:05:00;1615;8.5;35
13.01.2014;13:15:00;1545;8.8;34
13.01.2014;13:25:00;1583;9.1;34
13.01.2014;13:35:00;1662;9.3;34
13.01.2014;13:45:00;2919;9.7;34
13.01.2014;13:55:00;2811;10.2;36
13.01.2014;14:05:00;1654;10.5;35
13.01.2014;14:15:00;1375;10.8;35
13.01.2014;14:25:00;1286;11.0;34
13.01.2014;14:35:00;1205;11.2;34
13.01.2014;14:45:00;886;11.4;33
13.01.2014;14:55:00;865;11.5;33
13.01.2014;15:05:00;759;11.6;32
13.01.2014;15:15:00;584;11.7;32
13.01.2014;15:25:00;546;11.8;32
13.01.2014;15:35:00;413;11.9;32
13.01.2014;15:45:00;413;12.0;32
13.01.2014;15:55:00;351;12.0;32
13.01.2014;16:05:00;249;12.1;32
13.01.2014;16:15:00;276;12.1;32
13.01.2014;16:25:00;135;12.1;32
13.01.2014;16:35:00;107;12.2;31
13.01.2014;16:45:00;0;12.2;31
13.01.2014;16:55:00;0;12.2;0
14.01.2014;08:35:00;0;0;14
14.01.2014;08:45:00;113;0;25
14.01.2014;08:55:00;133;0;26
14.01.2014;09:05:00;153;0;26
14.01.2014;09:15:00;169;0;27
14.01.2014;09:25:00;184;.1;27
14.01.2014;09:35:00;193;.1;27
14.01.2014;09:45:00;239;.1;28
14.01.2014;09:55:00;245;.2;28
14.01.2014;10:05:00;291;.2;28
14.01.2014;10:15:00;367;.3;28
14.01.2014;10:25:00;410;.3;28
14.01.2014;10:35:00;396;.4;29
14.01.2014;10:45:00;454;.5;29
14.01.2014;10:55:00;418;.6;29
14.01.2014;11:05:00;414;.6;29
14.01.2014;11:15:00;438;.7;29
14.01.2014;11:25:00;457;.8;29
14.01.2014;11:35:00;489;.8;29
14.01.2014;11:45:00;478;.9;29
14.01.2014;11:55:00;483;1.0;30
14.01.2014;12:05:00;501;1.1;30
14.01.2014;12:15:00;481;1.2;30
14.01.2014;12:25:00;473;1.2;30
14.01.2014;12:35:00;458;1.3;30
14.01.2014;12:45:00;492;1.4;30
14.01.2014;12:55:00;470;1.5;30
14.01.2014;13:05:00;474;1.6;30
14.01.2014;13:15:00;480;1.6;30
14.01.2014;13:25:00;506;1.7;30
14.01.2014;13:35:00;482;1.8;30
14.01.2014;13:45:00;510;1.9;30
14.01.2014;13:55:00;551;2.0;30
14.01.2014;14:05:00;569;2.1;30
14.01.2014;14:15:00;569;2.2;30
14.01.2014;14:25:00;513;2.2;30
14.01.2014;14:35:00;505;2.3;30
14.01.2014;14:45:00;503;2.4;30
14.01.2014;14:55:00;346;2.5;30
14.01.2014;15:05:00;340;2.5;30
14.01.2014;15:15:00;302;2.6;30
14.01.2014;15:25:00;240;2.6;30
14.01.2014;15:35:00;201;2.7;30
14.01.2014;15:45:00;176;2.7;30
14.01.2014;15:55:00;175;2.7;30
14.01.2014;16:05:00;158;2.8;30
14.01.2014;16:15:00;151;2.8;30
14.01.2014;16:25:00;135;2.8;30
14.01.2014;16:35:00;116;2.8;30
14.01.2014;16:45:00;101;2.8;30
14.01.2014;16:55:00;0;2.8;3
15.01.2014;08:15:00;19;0;17
15.01.2014;08:25:00;148;0;25
15.01.2014;08:35:00;151;0;26
15.01.2014;08:45:00;233;0;26
15.01.2014;08:55:00;272;.1;27
15.01.2014;09:05:00;304;.1;27
15.01.2014;09:15:00;350;.2;27
15.01.2014;09:25:00;397;.2;28
15.01.2014;09:35:00;451;.3;28
15.01.2014;09:45:00;1203;.5;28
15.01.2014;09:55:00;1347;.7;28
15.01.2014;10:05:00;1486;1.0;29
15.01.2014;10:15:00;1648;1.2;29
15.01.2014;10:25:00;1849;1.5;30
15.01.2014;10:35:00;1992;1.8;30
15.01.2014;10:45:00;2125;2.2;31
15.01.2014;10:55:00;2218;2.6;32
15.01.2014;11:05:00;2316;2.9;32
15.01.2014;11:15:00;2436;3.3;33
15.01.2014;11:25:00;2504;3.7;33
15.01.2014;11:35:00;2591;4.2;34
15.01.2014;11:45:00;2709;4.6;34
15.01.2014;11:55:00;3514;5.1;35
15.01.2014;12:05:00;4709;5.9;37
15.01.2014;12:15:00;4736;6.7;39
15.01.2014;12:25:00;4897;7.5;40
15.01.2014;12:35:00;5263;8.3;42
15.01.2014;12:45:00;4181;9.0;42
15.01.2014;12:55:00;4859;9.8;43
15.01.2014;13:05:00;4863;10.6;44
15.01.2014;13:15:00;3154;11.3;43
15.01.2014;13:25:00;3536;11.8;42
15.01.2014;13:35:00;3550;12.4;42
15.01.2014;13:45:00;3506;13.0;42
15.01.2014;13:55:00;4374;13.7;42
15.01.2014;14:05:00;2715;14.1;41
15.01.2014;14:15:00;2271;14.5;40
15.01.2014;14:25:00;2156;14.9;39
15.01.2014;14:35:00;2857;15.3;39
15.01.2014;14:45:00;2614;15.8;39
15.01.2014;14:55:00;2098;16.2;38
15.01.2014;15:05:00;1208;16.4;37
15.01.2014;15:15:00;1274;16.6;36
15.01.2014;15:25:00;698;16.7;35
15.01.2014;15:35:00;782;16.9;35
15.01.2014;15:45:00;811;17.0;34
15.01.2014;15:55:00;718;17.1;34
15.01.2014;16:05:00;557;17.2;33
15.01.2014;16:15:00;415;17.3;33
15.01.2014;16:25:00;326;17.4;33
15.01.2014;16:35:00;203;17.4;33
15.01.2014;16:45:00;136;17.4;33
15.01.2014;16:55:00;65;17.4;25
16.01.2014;08:20:00;0;0;0
16.01.2014;08:30:00;128;0;25
16.01.2014;08:40:00;155;0;25
16.01.2014;08:50:00;278;0;26
16.01.2014;09:00:00;451;.1;26
16.01.2014;09:10:00;425;.2;27
16.01.2014;09:20:00;503;.2;27
16.01.2014;09:30:00;693;.4;28
16.01.2014;09:40:00;1077;.5;28
16.01.2014;09:50:00;1716;.8;28
16.01.2014;10:00:00;1798;1.0;28
16.01.2014;10:10:00;1477;1.3;29
16.01.2014;10:20:00;1646;1.6;29
16.01.2014;10:30:00;1477;1.8;30
16.01.2014;10:40:00;1281;2.1;30
16.01.2014;10:50:00;1150;2.3;30
16.01.2014;11:00:00;1086;2.4;30
16.01.2014;11:10:00;1340;2.6;30
16.01.2014;11:20:00;1508;2.9;30
16.01.2014;11:30:00;1694;3.1;31
16.01.2014;11:40:00;1550;3.4;31
16.01.2014;11:50:00;1492;3.7;31
16.01.2014;12:00:00;1434;3.9;31
16.01.2014;12:10:00;1148;4.1;31
16.01.2014;12:20:00;1099;4.3;31
16.01.2014;12:30:00;1423;4.5;31
16.01.2014;12:40:00;1530;4.8;32
16.01.2014;12:50:00;1548;5.0;32
16.01.2014;13:00:00;1402;5.3;32
16.01.2014;13:10:00;1268;5.5;32
16.01.2014;13:20:00;988;5.7;31
16.01.2014;13:30:00;1045;5.8;31
16.01.2014;13:40:00;1694;6.1;32
16.01.2014;13:50:00;1743;6.4;32
16.01.2014;14:00:00;1539;6.6;32
16.01.2014;14:10:00;1586;6.9;32
16.01.2014;14:20:00;1266;7.1;32
16.01.2014;14:30:00;1200;7.3;32
16.01.2014;14:40:00;1029;7.5;32
16.01.2014;14:50:00;567;7.6;32
16.01.2014;15:00:00;1191;7.8;32
16.01.2014;15:10:00;1253;8.0;32
16.01.2014;15:20:00;979;8.2;32
16.01.2014;15:30:00;855;8.3;32
16.01.2014;15:40:00;776;8.4;32
16.01.2014;15:50:00;613;8.5;31
16.01.2014;16:00:00;388;8.6;31
16.01.2014;16:10:00;309;8.7;31
16.01.2014;16:20:00;290;8.7;31
16.01.2014;16:30:00;223;8.8;31
16.01.2014;16:40:00;154;8.8;31
16.01.2014;16:50:00;46;8.8;17
16.01.2014;16:55:00;0;8.8;0
17.01.2014;08:30:00;0;0;23
17.01.2014;08:40:00;152;0;25
17.01.2014;08:50:00;127;0;25
17.01.2014;09:00:00;242;0;26
17.01.2014;09:10:00;285;.1;26
17.01.2014;09:20:00;368;.1;27
17.01.2014;09:30:00;481;.2;27
17.01.2014;09:40:00;548;.3;27
17.01.2014;09:50:00;640;.4;28
17.01.2014;10:00:00;689;.5;28
17.01.2014;10:10:00;764;.6;28
17.01.2014;10:20:00;954;.8;28
17.01.2014;10:30:00;1150;1.0;29
17.01.2014;10:40:00;1242;1.2;29
17.01.2014;10:50:00;1256;1.4;29
17.01.2014;11:00:00;1164;1.6;29
17.01.2014;11:10:00;1045;1.7;29
17.01.2014;11:20:00;1178;1.9;30
17.01.2014;11:30:00;1335;2.1;30
17.01.2014;11:40:00;1394;2.4;30
17.01.2014;11:50:00;1248;2.6;30
17.01.2014;12:00:00;1147;2.8;30
17.01.2014;12:10:00;976;2.9;30
17.01.2014;12:20:00;1038;3.1;30
17.01.2014;12:30:00;1043;3.3;30
17.01.2014;12:40:00;849;3.4;30
17.01.2014;12:50:00;943;3.6;31
17.01.2014;13:00:00;1132;3.7;31
17.01.2014;13:10:00;1947;4.0;31
17.01.2014;13:20:00;1442;4.3;31
17.01.2014;13:30:00;1489;4.5;31
17.01.2014;13:40:00;2544;4.9;32
17.01.2014;13:50:00;1329;5.2;32
17.01.2014;14:00:00;1071;5.3;32
17.01.2014;14:10:00;2231;5.6;32
17.01.2014;14:20:00;2264;6.0;33
17.01.2014;14:30:00;4126;6.6;35
17.01.2014;14:40:00;1570;6.9;35
17.01.2014;14:50:00;1175;7.2;34
17.01.2014;15:00:00;1098;7.3;33
17.01.2014;15:10:00;872;7.5;33
17.01.2014;15:20:00;1033;7.7;32
17.01.2014;15:30:00;1064;7.9;32
17.01.2014;15:40:00;859;8.0;32
17.01.2014;15:50:00;537;8.1;32
17.01.2014;16:00:00;549;8.2;32
17.01.2014;16:10:00;465;8.3;32
17.01.2014;16:20:00;418;8.4;32
17.01.2014;16:30:00;327;8.4;32
17.01.2014;16:40:00;240;8.5;31
17.01.2014;16:50:00;159;8.5;31
17.01.2014;17:00:00;108;8.5;31
17.01.2014;17:10:00;35;8.5;16
17.01.2014;17:20:00;0;8.5;0
18.01.2014;08:25:00;28;0;20
18.01.2014;08:35:00;164;0;24
18.01.2014;08:45:00;199;0;25
18.01.2014;08:55:00;324;.1;26
18.01.2014;09:05:00;357;.1;26
18.01.2014;09:15:00;311;.2;27
18.01.2014;09:25:00;382;.2;27
18.01.2014;09:35:00;580;.3;27
18.01.2014;09:45:00;834;.4;28
18.01.2014;09:55:00;763;0.6;28
18.01.2014;10:05:00;806;0.7;28
18.01.2014;10:15:00;849;0.9;28
18.01.2014;10:25:00;551;1.0;29
18.01.2014;10:35:00;450;1.0;29
18.01.2014;10:45:00;680;1.1;29
18.01.2014;10:55:00;595;1.2;29
18.01.2014;11:05:00;672;1.3;29
18.01.2014;11:15:00;696;1.4;29
18.01.2014;11:25:00;814;1.6;29
18.01.2014;11:35:00;838;1.7;29
18.01.2014;11:45:00;852;1.9;30
18.01.2014;11:55:00;968;2.0;30
18.01.2014;12:05:00;1015;2.2;30
18.01.2014;12:15:00;1141;2.3;30
18.01.2014;12:25:00;918;2.5;30
18.01.2014;12:35:00;991;2.7;30
18.01.2014;12:45:00;533;2.8;30
18.01.2014;12:55:00;488;2.9;30
18.01.2014;13:05:00;331;2.9;30
18.01.2014;13:15:00;359;3.0;30
18.01.2014;13:25:00;377;3.1;30
18.01.2014;13:35:00;452;3.1;30
18.01.2014;13:45:00;333;3.2;30
18.01.2014;13:55:00;489;3.3;30
18.01.2014;14:05:00;492;3.4;30
18.01.2014;14:15:00;494;3.4;30
18.01.2014;14:25:00;499;3.5;30
18.01.2014;14:35:00;569;3.6;30
18.01.2014;14:45:00;540;3.7;30
18.01.2014;14:55:00;528;3.8;30
18.01.2014;15:05:00;541;3.9;30
18.01.2014;15:15:00;470;4.0;30
18.01.2014;15:25:00;494;4.0;30
18.01.2014;15:35:00;369;4.1;30
18.01.2014;15:45:00;304;4.2;30
18.01.2014;15:55:00;227;4.2;30
18.01.2014;16:05:00;202;4.2;30
18.01.2014;16:15:00;199;4.3;30
18.01.2014;16:25:00;153;4.3;30
18.01.2014;16:35:00;121;4.3;30
18.01.2014;16:45:00;100;4.3;30
18.01.2014;16:55:00;0;4.3;0
18.01.2014;17:00:00;0;4.3;0
19.01.2014;08:25:00;75;00;22
19.01.2014;08:35:00;112;00;24
19.01.2014;08:45:00;102;00;25
19.01.2014;08:55:00;163;00;26
19.01.2014;09:05:00;179;00;26
19.01.2014;09:15:00;205;0.1;27
19.01.2014;09:25:00;246;0.1;27
19.01.2014;09:35:00;272;0.2;27
19.01.2014;09:45:00;310;0.2;27
19.01.2014;09:55:00;317;0.3;28
19.01.2014;10:05:00;395;0.3;28
19.01.2014;10:15:00;378;0.4;28
19.01.2014;10:25:00;276;0.4;28
19.01.2014;10:35:00;301;0.5;28
19.01.2014;10:45:00;320;0.5;28
19.01.2014;10:55:00;357;0.6;29
19.01.2014;11:05:00;410;0.7;29
19.01.2014;11:15:00;433;0.7;29
19.01.2014;11:25:00;478;0.8;29
19.01.2014;11:35:00;451;0.9;29
19.01.2014;11:45:00;553;1.0;29
19.01.2014;11:55:00;449;1.1;29
19.01.2014;12:05:00;387;1.1;29
19.01.2014;12:15:00;440;1.2;29
19.01.2014;12:25:00;499;1.3;29
19.01.2014;12:35:00;483;1.4;29
19.01.2014;12:45:00;503;1.4;30
19.01.2014;12:55:00;520;1.5;30
19.01.2014;13:05:00;601;1.6;30
19.01.2014;13:15:00;560;1.7;30
19.01.2014;13:25:00;544;1.8;30
19.01.2014;13:35:00;577;1.9;30
19.01.2014;13:45:00;567;2.0;30
19.01.2014;13:55:00;617;2.1;30
19.01.2014;14:05:00;684;2.2;30
19.01.2014;14:15:00;641;2.3;30
19.01.2014;14:25:00;618;2.4;30
19.01.2014;14:35:00;572;2.5;30
19.01.2014;14:45:00;509;2.6;30
19.01.2014;14:55:00;450;2.7;30
19.01.2014;15:05:00;357;2.7;30
19.01.2014;15:15:00;369;2.8;30
19.01.2014;15:25:00;301;2.8;30
19.01.2014;15:35:00;262;2.9;30
19.01.2014;15:45:00;234;2.9;30
19.01.2014;15:55:00;212;3.0;30
19.01.2014;16:05:00;193;3.0;30
19.01.2014;16:15:00;170;3.0;30
19.01.2014;16:25:00;144;3.0;30
19.01.2014;16:35:00;117;3.1;30
19.01.2014;16:45:00;101;3.1;30
19.01.2014;16:55:00;87;3.1;30
20.01.2014;08:15:00;101;00;22
20.01.2014;08:25:00;276;00;24
20.01.2014;08:35:00;327;0.1;25
20.01.2014;08:45:00;424;0.1;26
20.01.2014;08:55:00;640;0.2;26
20.01.2014;09:05:00;742;0.3;27
20.01.2014;09:15:00;678;0.4;27
20.01.2014;09:25:00;510;0.5;27
20.01.2014;09:35:00;657;0.6;28
20.01.2014;09:45:00;953;0.8;28
20.01.2014;09:55:00;1005;1.0;28
20.01.2014;10:05:00;1022;1.1;28
20.01.2014;10:15:00;1862;1.4;29
20.01.2014;10:25:00;1832;1.7;29
20.01.2014;10:35:00;1574;2.0;30
20.01.2014;10:45:00;1013;2.2;30
20.01.2014;10:55:00;1133;2.4;30
20.01.2014;11:05:00;1208;2.5;30
20.01.2014;11:15:00;1183;2.7;30
20.01.2014;11:25:00;1177;2.9;30
20.01.2014;11:35:00;1024;3.1;30
20.01.2014;11:45:00;1143;3.3;30
20.01.2014;11:55:00;911;3.5;30
20.01.2014;12:05:00;1275;3.6;30
20.01.2014;12:15:00;1556;3.9;31
20.01.2014;12:25:00;1555;4.2;31
20.01.2014;12:35:00;959;4.3;31
20.01.2014;12:45:00;661;4.5;31
20.01.2014;12:55:00;536;4.6;31
20.01.2014;13:05:00;702;4.7;31
20.01.2014;13:15:00;605;4.8;31
20.01.2014;13:25:00;491;4.9;31
20.01.2014;13:35:00;644;5.0;31
20.01.2014;13:45:00;606;5.1;31
20.01.2014;13:55:00;558;5.2;31
20.01.2014;14:05:00;477;5.2;31
20.01.2014;14:15:00;379;5.3;31
20.01.2014;14:25:00;398;5.4;31
20.01.2014;14:35:00;387;5.4;31
20.01.2014;14:45:00;393;5.5;31
20.01.2014;14:55:00;427;5.6;31
20.01.2014;15:05:00;397;5.6;31
20.01.2014;15:15:00;304;5.7;30
20.01.2014;15:25:00;401;5.8;30
20.01.2014;15:35:00;380;5.8;30
20.01.2014;15:45:00;343;5.9;30
20.01.2014;15:55:00;371;5.9;30
20.01.2014;16:05:00;270;6.0;30
20.01.2014;16:15:00;179;6.0;30
20.01.2014;16:25:00;159;6.1;30
20.01.2014;16:35:00;116;6.1;30
20.01.2014;16:45:00;86;6.1;30
20.01.2014;16:50:00;0;6.1;8
21.01.2014;08:50:00;0;00;24
21.01.2014;09:00:00;121;00;25
21.01.2014;09:10:00;119;00;25
21.01.2014;09:20:00;192;00;26
21.01.2014;09:30:00;219;00;26
21.01.2014;09:40:00;240;0.1;27
21.01.2014;09:50:00;288;0.1;27
21.01.2014;10:00:00;338;0.2;27
21.01.2014;10:10:00;406;0.3;27
21.01.2014;10:20:00;490;0.3;28
21.01.2014;10:30:00;501;0.4;28
21.01.2014;10:40:00;529;0.5;28
21.01.2014;10:50:00;631;0.6;28
21.01.2014;11:00:00;630;0.7;28
21.01.2014;11:10:00;661;0.8;29
21.01.2014;11:20:00;612;0.9;29
21.01.2014;11:30:00;603;1.0;29
21.01.2014;11:40:00;572;1.1;29
21.01.2014;11:50:00;616;1.2;29
21.01.2014;12:00:00;610;1.3;29
21.01.2014;12:10:00;627;1.4;29
21.01.2014;12:20:00;561;1.5;29
21.01.2014;12:30:00;528;1.6;29
21.01.2014;12:40:00;568;1.6;30
21.01.2014;12:50:00;599;1.7;30
21.01.2014;13:00:00;718;1.9;30
21.01.2014;13:20:00;546;2.1;30
21.01.2014;13:30:00;733;2.2;30
21.01.2014;13:40:00;450;2.3;30
21.01.2014;13:50:00;542;2.3;30
21.01.2014;14:00:00;490;2.4;30
21.01.2014;14:10:00;555;2.5;30
21.01.2014;14:20:00;580;2.6;30
21.01.2014;14:30:00;567;2.7;30
21.01.2014;14:40:00;585;2.8;30
21.01.2014;14:50:00;580;2.9;30
21.01.2014;15:00:00;541;3.0;30
21.01.2014;15:10:00;468;3.0;30
21.01.2014;15:20:00;392;3.1;30
21.01.2014;15:30:00;342;3.2;30
21.01.2014;15:40:00;360;3.2;30
21.01.2014;15:50:00;399;3.3;30
21.01.2014;16:00:00;357;3.4;30
21.01.2014;16:10:00;306;3.4;30
21.01.2014;16:20:00;289;3.5;30
21.01.2014;16:30:00;228;3.5;30
21.01.2014;16:40:00;163;3.5;30
21.01.2014;16:50:00;125;3.6;30
21.01.2014;17:00:00;95;3.6;30
21.01.2014;17:10:00;0;3.6;0
22.01.2014;08:30:00;0;00;12
22.01.2014;08:40:00;118;00;25
22.01.2014;08:50:00;161;00;25
22.01.2014;09:00:00;185;00;26
22.01.2014;09:10:00;253;00;26
22.01.2014;09:20:00;286;0.1;27
22.01.2014;09:30:00;359;0.2;27
22.01.2014;09:40:00;432;0.2;27
22.01.2014;09:50:00;540;0.3;28
22.01.2014;10:00:00;701;0.4;28
22.01.2014;10:10:00;781;0.5;28
22.01.2014;10:20:00;899;0.7;28
22.01.2014;10:30:00;1044;0.8;28
22.01.2014;10:40:00;1109;1.0;29
22.01.2014;10:50:00;1231;1.2;29
22.01.2014;11:00:00;1177;1.4;29
22.01.2014;11:10:00;1347;1.6;29
22.01.2014;11:20:00;1334;1.9;29
22.01.2014;11:30:00;1370;2.1;30
22.01.2014;11:40:00;1219;2.3;30
22.01.2014;11:50:00;1132;2.5;30
22.01.2014;12:00:00;1068;2.7;30
22.01.2014;12:10:00;1182;2.8;30
22.01.2014;12:20:00;1142;3.0;30
22.01.2014;12:30:00;1180;3.2;30
22.01.2014;12:40:00;1151;3.4;30
22.01.2014;12:50:00;1082;3.6;30
22.01.2014;13:00:00;1131;3.8;31
22.01.2014;13:10:00;1227;4.0;31
22.01.2014;13:20:00;1211;4.2;31
22.01.2014;13:30:00;1139;4.4;31
22.01.2014;13:40:00;1284;4.6;31
22.01.2014;13:50:00;1094;4.8;31
22.01.2014;14:00:00;1078;4.9;31
22.01.2014;14:10:00;1102;5.1;31
22.01.2014;14:20:00;1046;5.3;31
22.01.2014;14:30:00;1043;5.5;31
22.01.2014;14:40:00;922;5.6;31
22.01.2014;14:50:00;951;5.8;31
22.01.2014;15:00:00;821;5.9;31
22.01.2014;15:10:00;736;6.1;31
22.01.2014;15:20:00;710;6.2;31
22.01.2014;15:30:00;583;6.3;31
22.01.2014;15:40:00;553;6.4;31
22.01.2014;15:50:00;485;6.4;31
22.01.2014;16:00:00;446;6.5;31
22.01.2014;16:10:00;363;6.6;31
22.01.2014;16:20:00;331;6.6;31
22.01.2014;16:30:00;241;6.7;31
22.01.2014;16:40:00;176;6.7;31
22.01.2014;16:50:00;136;6.7;31
22.01.2014;17:00:00;94;6.8;31
23.01.2014;08:25:00;91;00;22
23.01.2014;08:35:00;218;00;25
23.01.2014;08:45:00;407;00;26
23.01.2014;08:55:00;500;0.1;26
23.01.2014;09:05:00;395;0.2;27
23.01.2014;09:15:00;459;0.3;27
23.01.2014;09:25:00;368;0.3;27
23.01.2014;09:35:00;411;0.4;28
23.01.2014;09:45:00;360;0.5;28
23.01.2014;09:55:00;279;0.5;28
23.01.2014;10:05:00;474;0.6;28
23.01.2014;10:15:00;396;0.7;28
23.01.2014;10:25:00;428;0.7;28
23.01.2014;10:35:00;417;0.8;29
23.01.2014;10:45:00;462;0.9;29
23.01.2014;10:55:00;670;1.0;29
23.01.2014;11:05:00;643;1.1;29
23.01.2014;11:15:00;635;1.2;29
23.01.2014;11:25:00;464;1.3;29
23.01.2014;11:35:00;440;1.4;29
23.01.2014;11:45:00;497;1.4;29
23.01.2014;11:55:00;629;1.5;29
23.01.2014;12:05:00;721;1.7;30
23.01.2014;12:15:00;901;1.8;30
23.01.2014;12:25:00;882;1.9;30
23.01.2014;12:35:00;883;2.1;30
23.01.2014;12:45:00;732;2.2;30
23.01.2014;12:55:00;675;2.3;30
23.01.2014;13:05:00;434;2.4;30
23.01.2014;13:15:00;444;2.5;30
23.01.2014;13:25:00;552;2.6;30
23.01.2014;13:35:00;834;2.7;30
23.01.2014;13:45:00;693;2.8;30
23.01.2014;13:55:00;683;3.0;30
23.01.2014;14:05:00;606;3.1;30
23.01.2014;14:15:00;344;3.2;30
23.01.2014;14:25:00;285;3.2;30
23.01.2014;14:35:00;340;3.3;30
23.01.2014;14:45:00;383;3.3;30
23.01.2014;14:55:00;536;3.4;30
23.01.2014;15:05:00;602;3.5;30
23.01.2014;15:15:00;509;3.6;30
23.01.2014;15:25:00;446;3.7;30
23.01.2014;15:35:00;463;3.7;30
23.01.2014;15:45:00;796;3.9;30
23.01.2014;15:55:00;662;4.0;30
23.01.2014;16:05:00;407;4.1;30
23.01.2014;16:15:00;478;4.1;30
23.01.2014;16:25:00;287;4.2;30
23.01.2014;16:35:00;271;4.2;30
23.01.2014;16:45:00;178;4.3;30
23.01.2014;16:55:00;90;4.3;30
23.01.2014;17:05:00;0;4.3;0
23.01.2014;17:15:00;0;4.3;0
23.01.2014;17:20:00;0;4.3;0
24.01.2014;08:15:00;0;00;0
24.01.2014;08:25:00;61;00;24
24.01.2014;08:35:00;134;00;25
24.01.2014;08:45:00;144;00;26
24.01.2014;08:55:00;167;00;26
24.01.2014;09:05:00;176;0.1;26
24.01.2014;09:15:00;194;0.1;27
24.01.2014;09:25:00;224;0.1;27
24.01.2014;09:35:00;255;0.2;27
24.01.2014;09:45:00;280;0.2;28
24.01.2014;09:55:00;342;0.3;28
24.01.2014;10:05:00;153;0.3;28
24.01.2014;10:15:00;145;0.3;28
24.01.2014;10:25:00;204;0.3;28
24.01.2014;10:35:00;313;0.4;28
24.01.2014;10:45:00;345;0.5;29
24.01.2014;10:55:00;545;0.5;29
24.01.2014;11:05:00;498;0.6;29
24.01.2014;11:15:00;486;0.7;29
24.01.2014;11:25:00;929;0.8;29
24.01.2014;11:35:00;473;1.0;29
24.01.2014;11:45:00;363;1.0;29
24.01.2014;11:55:00;530;1.1;29
24.01.2014;12:05:00;537;1.2;29
24.01.2014;12:15:00;734;1.3;30
24.01.2014;12:25:00;816;1.5;30
24.01.2014;12:35:00;761;1.6;30
24.01.2014;12:45:00;539;1.7;30
24.01.2014;12:55:00;487;1.8;30
24.01.2014;13:05:00;742;1.9;30
24.01.2014;13:15:00;822;2.0;30
24.01.2014;13:25:00;758;2.1;30
24.01.2014;13:35:00;701;2.3;30
24.01.2014;13:45:00;725;2.4;30
24.01.2014;13:55:00;511;2.5;30
24.01.2014;14:05:00;520;2.6;30
24.01.2014;14:15:00;606;2.7;30
24.01.2014;14:25:00;385;2.7;30
24.01.2014;14:35:00;443;2.8;30
24.01.2014;14:45:00;660;2.9;30
24.01.2014;14:55:00;1152;3.1;30
24.01.2014;15:05:00;1050;3.3;30
24.01.2014;15:15:00;1177;3.4;30
24.01.2014;15:25:00;1657;3.7;30
24.01.2014;15:35:00;1351;3.9;31
24.01.2014;15:45:00;965;4.1;31
24.01.2014;15:55:00;979;4.3;31
24.01.2014;16:05:00;640;4.4;31
24.01.2014;16:15:00;338;4.4;31
24.01.2014;16:25:00;257;4.5;31
24.01.2014;16:35:00;192;4.5;31
24.01.2014;16:45:00;142;4.5;31
24.01.2014;16:55:00;97;4.6;30
24.01.2014;17:00:00;27;4.6;9
25.01.2014;08:35:00;24;00;19
25.01.2014;08:45:00;146;00;25
25.01.2014;08:55:00;86;00;25
25.01.2014;09:05:00;145;00;26
25.01.2014;09:15:00;149;00;26
25.01.2014;09:25:00;151;0.1;26
25.01.2014;09:35:00;154;0.1;27
25.01.2014;09:45:00;144;0.1;27
25.01.2014;09:55:00;183;0.1;27
25.01.2014;10:05:00;228;0.2;28
25.01.2014;10:15:00;251;0.2;28
25.01.2014;10:25:00;309;0.3;28
25.01.2014;10:35:00;291;0.3;28
25.01.2014;10:45:00;356;0.4;28
25.01.2014;10:55:00;520;0.4;28
25.01.2014;11:05:00;457;0.5;28
25.01.2014;11:15:00;649;0.6;29
25.01.2014;11:25:00;457;0.7;29
25.01.2014;11:35:00;542;0.8;29
25.01.2014;11:45:00;632;0.9;29
25.01.2014;11:55:00;840;1.0;29
25.01.2014;12:05:00;966;1.2;29
25.01.2014;12:15:00;1662;1.5;29
25.01.2014;12:25:00;3647;2.0;31
25.01.2014;12:35:00;3146;2.5;32
25.01.2014;12:45:00;2163;2.9;33
25.01.2014;12:55:00;2196;3.2;33
25.01.2014;13:05:00;2600;3.6;33
25.01.2014;13:15:00;4690;4.3;34
25.01.2014;13:25:00;6717;5.4;39
25.01.2014;13:35:00;5539;6.4;42
25.01.2014;13:45:00;2775;6.9;40
25.01.2014;13:55:00;1731;7.2;38
25.01.2014;14:05:00;2430;7.5;37
25.01.2014;14:15:00;4233;8.2;39
25.01.2014;14:25:00;3540;8.9;39
25.01.2014;14:35:00;2530;9.3;38
25.01.2014;14:45:00;1730;9.6;37
25.01.2014;14:55:00;1691;9.9;36
25.01.2014;15:05:00;1404;10.2;35
25.01.2014;15:15:00;1273;10.4;35
25.01.2014;15:25:00;863;10.5;34
25.01.2014;15:35:00;848;10.7;33
25.01.2014;15:45:00;877;10.8;33
25.01.2014;15:55:00;960;11.0;32
25.01.2014;16:05:00;882;11.1;32
25.01.2014;16:15:00;428;11.2;32